User: anonymous   Login
Location: Kirkcaldy
(50.3333°N, 113.2333°W)
Time: 12:32:50
(UTC+00:00)
Language:

XW-2C - Orbit

View from above orbital plane
View from above orbital plane
View from above satellite
View from above satellite

Ground track
Ground track

The orbit data is extracted from the following two-line orbital elements,

1 40906U 15049H   23335.18360275  .00023425  00000-0  75848-3 0  9997
2 40906  97.4908 343.4656 0008352 299.8814  60.1597 15.32001384453915
Epoch (UTC): 01 December 2023 04:24:23
Eccentricity: 0.0008352
inclination: 97.4908°
perigee height: 464 km
apogee height: 475 km
right ascension of ascending node: 343.4656°
argument of perigee: 299.8814°
revolutions per day: 15.32001384
mean anomaly at epoch: 60.1597°
orbit number at epoch: 45391

The dashed part of the orbit path shows where the satellite is in the earth's shadow,  

DLR